Weather History for Kansas City International, MO

Change the Weather History Date:

Friday, May 24, 2013

  Actual Average Record
Temperature  
Mean Temperature 60 °F 67 °F  
Max Temperature 72 °F 77 °F 97 °F (1939)
Min Temperature 47 °F 57 °F 41 °F (1925)
Degree Days  
Heating Degree Days 5 2  
Month to date heating degree days 156 93  
Since 1 July heating degree days 5185 5113  
Cooling Degree Days 0 4  
Month to date cooling degree days 48 55  
Year to date cooling degree days 61 83  
Growing Degree Days 9 (Base 50)    
Moisture  
Dew Point 47 °F    
Average Humidity 67    
Maximum Humidity 93    
Minimum Humidity 40    
Precipitation  
Precipitation 0.00 in 0.17 in 2.63 in (1902)
Month to date precipitation 2.91 4.06  
Year to date precipitation 11.38 12.66  
Snow  
Snow 0.00 in 0.00 in 0.00 in ()
Month to date snowfall 0.5 0.0  
Since 1 July snowfall 31.8 18.8  
Snow Depth 0.00 in    
Sea Level Pressure  
Sea Level Pressure 30.23 in    
Wind  
Wind Speed 11 mph (SE)    
Max Wind Speed 22 mph    
Max Gust Speed 30 mph    
Visibility 10 miles    
Events      
T = Trace of Precipitation, MM = Missing Value Source: NWS Daily Summary

Daily Weather History Graph

Daily Weather History Graph

Search for Another Location

Airport:

Trip Planner

Search our weather history database for the weather conditions in past years. The results will help you decide how hot, cold, wet, or windy it might be!

Date:

Astronomy

May. 24, 2013 Rise Set
Actual Time 5:58 AM CDT 8:33 PM CDT
Civil Twilight 5:27 AM CDT 9:04 PM CDT
Nautical Twilight 4:48 AM CDT 9:43 PM CDT
Astronomical Twilight 4:05 AM CDT 10:27 PM CDT
Moon 8:16 PM CDT (5/24) 5:30 AM CDT (5/24)
Length of Visible Light 15h 37m
Length of Day
14h 35m
Full, 100% of the Moon is Illuminated
May 24
Full
May 24
Full
May 31
Last Quarter
Jun 8
New
Jun 16
First Quarter

Hourly Weather History & Observations

Time (CDT) Temp. Dew Point Humidity Pressure Visibility Wind Dir Wind Speed Gust Speed Precip Events Conditions
12:53 AM 55.9 °F 48.9 °F 77% 30.22 in 10.0 mi ESE 4.6 mph - N/A   Scattered Clouds
1:53 AM 54.0 °F 48.9 °F 83% 30.24 in 10.0 mi ENE 3.5 mph - N/A   Scattered Clouds
2:53 AM 53.1 °F 48.0 °F 83% 30.25 in 10.0 mi ESE 5.8 mph - N/A   Scattered Clouds
3:53 AM 48.9 °F 46.9 °F 93% 30.25 in 9.0 mi SSE 4.6 mph - N/A   Scattered Clouds
4:53 AM 54.0 °F 48.9 °F 83% 30.26 in 10.0 mi ESE 5.8 mph - N/A   Scattered Clouds
5:53 AM 48.9 °F 46.9 °F 93% 30.29 in 10.0 mi South 6.9 mph - N/A   Partly Cloudy
6:53 AM 53.1 °F 48.9 °F 86% 30.31 in 10.0 mi SE 6.9 mph - N/A   Scattered Clouds
7:53 AM 55.9 °F 51.1 °F 84% 30.32 in 10.0 mi SE 6.9 mph - N/A   Scattered Clouds
8:53 AM 61.0 °F 52.0 °F 72% 30.31 in 10.0 mi SE 11.5 mph - N/A   Scattered Clouds
9:53 AM 64.0 °F 48.0 °F 56% 30.31 in 10.0 mi SE 19.6 mph 25.3 mph N/A   Mostly Cloudy
10:41 AM 64.4 °F 48.2 °F 56% 30.32 in 10.0 mi SSE 18.4 mph 21.9 mph N/A   Scattered Clouds
10:53 AM 64.9 °F 48.0 °F 54% 30.32 in 10.0 mi SE 17.3 mph 24.2 mph N/A   Scattered Clouds
11:53 AM 66.9 °F 48.0 °F 51% 30.29 in 10.0 mi ESE 21.9 mph 25.3 mph N/A   Partly Cloudy
12:53 PM 68.0 °F 46.9 °F 47% 30.26 in 10.0 mi ESE 16.1 mph 26.5 mph N/A   Partly Cloudy
1:53 PM 69.1 °F 48.0 °F 47% 30.26 in 10.0 mi SE 17.3 mph - N/A   Partly Cloudy
2:53 PM 71.1 °F 46.0 °F 41% 30.24 in 10.0 mi SSE 13.8 mph 20.7 mph N/A   Partly Cloudy
3:53 PM 72.0 °F 46.9 °F 41% 30.22 in 10.0 mi SSE 13.8 mph - N/A   Partly Cloudy
4:53 PM 71.1 °F 46.0 °F 41% 30.19 in 10.0 mi SE 11.5 mph - N/A   Overcast
5:53 PM 70.0 °F 46.9 °F 44% 30.18 in 10.0 mi SSE 12.7 mph - N/A   Overcast
6:53 PM 70.0 °F 45.0 °F 41% 30.14 in 10.0 mi SE 15.0 mph 19.6 mph N/A   Scattered Clouds
7:53 PM 66.9 °F 46.0 °F 47% 30.14 in 10.0 mi SE 9.2 mph - N/A   Scattered Clouds
8:53 PM 64.9 °F 45.0 °F 48% 30.13 in 10.0 mi SE 11.5 mph - N/A   Scattered Clouds
9:53 PM 64.9 °F 45.0 °F 48% 30.13 in 10.0 mi SE 11.5 mph - N/A   Scattered Clouds
10:53 PM 63.0 °F 45.0 °F 52% 30.15 in 10.0 mi SSE 9.2 mph - N/A   Partly Cloudy
11:53 PM 63.0 °F 44.1 °F 50% 30.15 in 10.0 mi SE 10.4 mph - N/A   Mostly Cloudy